Location: Broekland
(52.3610°N, 6.2005°E)
Time: 21:21:03
(UTC+00:00)

NOSS 3-1 (C) - Pass Details

Date: 19 May 2025
Orbit: 632 x 1571 km, 63.4° (Epoch: 12 June)

Event Time Altitude Azimuth Distance (km) Brightness Sun altitude
Rises 22:07:17 0° 237° (WSW) 3,045 6.0 -15.4°
Reaches altitude 10° 22:09:27 10° 241° (WSW) 2,202 5.3 -15.5°
Maximum altitude 22:14:24 64° 323° (NW) 903 3.6 -15.7°
Drops below altitude 10° 22:20:34 10° 45° (NE) 2,727 6.2 -16.0°
Sets 22:23:31 0° 49° (NE) 3,835 6.9 -16.1°
